Weather History for Massena, NY

Change the Weather History Date:

Friday, October 5, 2012

  Actual Average Record
Temperature  
Mean Temperature 63 °F 50 °F  
Max Temperature 71 °F 61 °F 85 °F (1991)
Min Temperature 54 °F 40 °F 22 °F (1984)
Degree Days  
Heating Degree Days 2 15  
Month to date heating degree days 23 70  
Since 1 July heating degree days 240 370  
Cooling Degree Days 0 0  
Month to date cooling degree days 0 0  
Year to date cooling degree days 537 361  
Growing Degree Days 13 (Base 50)    
Moisture  
Dew Point 55 °F    
Average Humidity 80    
Maximum Humidity 93    
Minimum Humidity 67    
Precipitation  
Precipitation 0.03 in 0.11 in 1.35 in (1962)
Month to date precipitation 0.42 0.54  
Year to date precipitation 22.94 26.73  
Sea Level Pressure  
Sea Level Pressure 29.90 in    
Wind  
Wind Speed 11 mph (SW)    
Max Wind Speed 24 mph    
Max Gust Speed 32 mph    
Visibility 10 miles    
Events      
T = Trace of Precipitation, MM = Missing Value Source: NWS Daily Summary

Daily Weather History Graph

Daily Weather History Graph

Search for Another Location

Airport:

Trip Planner

Search our weather history database for the weather conditions in past years. The results will help you decide how hot, cold, wet, or windy it might be!

Date:

Astronomy

Oct. 05, 2012 Rise Set
Actual Time 7:02 AM EDT 6:31 PM EDT
Civil Twilight 6:33 AM EDT 7:00 PM EDT
Nautical Twilight 5:59 AM EDT 7:34 PM EDT
Astronomical Twilight 5:25 AM EDT 8:08 PM EDT
Moon 9:40 PM EDT (10/5) 12:20 PM EDT (10/5)
Length of Visible Light 12h 27m
Length of Day
11h 28m
Waning Gibbous, 74% of the Moon is Illuminated
Oct 5
Waning Gibbous
Oct 8
Last Quarter
Oct 15
New
Oct 21
First Quarter
Oct 29
Full

Hourly Weather History & Observations

Time (EDT) Temp. Dew Point Humidity Pressure Visibility Wind Dir Wind Speed Gust Speed Precip Events Conditions
12:53 AM 62.1 °F 54.0 °F 75% 29.97 in 10.0 mi SW 8.1 mph - N/A   Clear
1:53 AM 59.0 °F 54.0 °F 83% 29.97 in 10.0 mi SW 8.1 mph - N/A   Clear
2:53 AM 57.9 °F 54.0 °F 87% 29.98 in 10.0 mi SW 5.8 mph - N/A   Clear
3:53 AM 55.9 °F 54.0 °F 93% 29.98 in 9.0 mi SW 5.8 mph - N/A   Clear
4:53 AM 55.0 °F 53.1 °F 93% 29.97 in 8.0 mi Calm Calm - N/A   Clear
5:53 AM 57.0 °F 55.0 °F 93% 29.96 in 8.0 mi SSW 6.9 mph - N/A   Clear
6:53 AM 57.0 °F 55.0 °F 93% 29.95 in 10.0 mi SSW 6.9 mph - N/A   Clear
7:53 AM 57.9 °F 55.0 °F 90% 29.95 in 10.0 mi SSW 8.1 mph - N/A   Partly Cloudy
8:53 AM 62.1 °F 55.0 °F 78% 29.94 in 10.0 mi SSW 9.2 mph - N/A   Overcast
9:53 AM 63.0 °F 54.0 °F 72% 29.93 in 10.0 mi SW 11.5 mph - N/A   Overcast
10:53 AM 62.1 °F 55.9 °F 80% 29.93 in 10.0 mi SSW 10.4 mph 18.4 mph 0.03 in   Overcast
11:53 AM 64.9 °F 57.9 °F 78% 29.91 in 10.0 mi SW 17.3 mph 32.2 mph N/A   Overcast
12:53 PM 68.0 °F 59.0 °F 73% 29.89 in 10.0 mi SW 18.4 mph 28.8 mph N/A   Mostly Cloudy
1:51 PM 69.8 °F 60.8 °F 73% 29.86 in 10.0 mi SW 15.0 mph 19.6 mph N/A   Overcast
1:53 PM 70.0 °F 60.1 °F 71% 29.86 in 10.0 mi SW 17.3 mph 24.2 mph N/A   Mostly Cloudy
2:53 PM 71.1 °F 60.1 °F 68% 29.86 in 10.0 mi SW 18.4 mph 27.6 mph N/A   Mostly Cloudy
3:53 PM 69.1 °F 59.0 °F 70% 29.85 in 10.0 mi SSW 20.7 mph 27.6 mph N/A   Clear
4:53 PM 68.0 °F 57.9 °F 70% 29.85 in 10.0 mi SW 19.6 mph 27.6 mph N/A   Overcast
5:53 PM 66.0 °F 57.0 °F 73% 29.86 in 10.0 mi SW 18.4 mph 25.3 mph N/A   Clear
6:53 PM 64.9 °F 55.9 °F 73% 29.85 in 10.0 mi SW 13.8 mph 24.2 mph N/A   Clear
7:53 PM 64.0 °F 53.1 °F 67% 29.85 in 10.0 mi SW 11.5 mph - N/A   Mostly Cloudy
8:53 PM 63.0 °F 51.1 °F 65% 29.85 in 10.0 mi SW 10.4 mph - N/A   Overcast
9:53 PM 63.0 °F 52.0 °F 67% 29.85 in 10.0 mi SW 8.1 mph - N/A   Overcast
10:53 PM 62.1 °F 51.1 °F 67% 29.85 in 10.0 mi SW 10.4 mph - N/A   Overcast
11:53 PM 61.0 °F 50.0 °F 67% 29.84 in 10.0 mi SW 8.1 mph - 0.00 in   Overcast